Location: Rounton
(54.4000°N, 1.3500°W)
Time: 23:09:50
(UTC+00:00)

Explorer 7 - Pass Details

Date: 07 December 2021
Orbit: 483 x 674 km, 50.3° (Epoch: 17 January)

Event Time Altitude Azimuth Distance (km) Brightness Sun altitude
Rises 08:43:34 0° 272° (W) 2,738 9.9 2.5°
Reaches altitude 10° 08:45:59 10° 264° (W) 1,807 9.1 2.8°
Maximum altitude 08:49:45 36° 197° (SSW) 834 8.2 3.1°
Drops below altitude 10° 08:53:20 10° 130° (SE) 1,715 11.7 3.5°
Sets 08:55:34 0° 121° (ESE) 2,577 12.0 3.7°
